GFSCGP_prec_pwat_021.txt.gz
Precipitable_Water
0.21 0.20 0.18 0.17 0.25 0.30 0.31 0.30 0.26 0.29 0.36 0.38 0.36 0.39 0.43 0.45 0.51 0.52 0.50 0.50 0.53 0.58 0.61 0.64 0.64 0.67 0.70 0.75 0.74 0.81 0.90 1.02 1.11 1.15 1.18 1.25 1.24 1.31 1.38 1.41 1.38 1.35 1.33 1.34
0.22 0.14 0.16 0.23 0.25 0.27 0.27 0.24 0.24 0.31 0.37 0.38 0.33 0.37 0.42 0.42 0.44 0.48 0.50 0.49 0.53 0.58 0.61 0.63 0.63 0.65 0.70 0.75 0.82 0.91 1.00 1.12 1.20 1.24 1.30 1.33 1.33 1.36 1.30 1.36 1.32 1.31 1.30 1.29
0.19 0.18 0.19 0.20 0.23 0.23 0.22 0.20 0.20 0.23 0.33 0.33 0.32 0.32 0.33 0.36 0.39 0.44 0.49 0.51 0.53 0.55 0.55 0.57 0.60 0.60 0.72 0.79 0.87 0.94 1.13 1.20 1.26 1.35 1.38 1.39 1.38 1.34 1.27 1.23 1.20 1.21 1.25 1.26
0.17 0.21 0.23 0.20 0.20 0.23 0.17 0.25 0.24 0.25 0.25 0.20 0.31 0.22 0.26 0.29 0.31 0.35 0.39 0.44 0.50 0.52 0.52 0.53 0.55 0.62 0.73 0.85 0.94 1.02 1.21 1.27 1.36 1.36 1.31 1.26 1.16 1.07 1.11 1.12 1.18 1.21 1.21 1.13
0.13 0.16 0.20 0.22 0.19 0.26 0.19 0.26 0.25 0.26 0.23 0.23 0.24 0.22 0.17 0.28 0.28 0.33 0.37 0.46 0.49 0.49 0.51 0.52 0.57 0.68 0.83 0.95 0.98 1.09 1.23 1.29 1.30 1.30 1.27 1.19 1.09 1.10 1.11 1.13 1.11 1.13 1.10 1.16
0.20 0.22 0.19 0.17 0.20 0.25 0.27 0.27 0.25 0.25 0.24 0.20 0.18 0.21 0.13 0.20 0.24 0.30 0.39 0.45 0.46 0.49 0.53 0.60 0.73 0.82 0.89 0.98 1.09 1.21 1.22 1.18 1.22 1.23 1.16 1.07 1.02 1.00 1.03 1.05 0.99 1.01 1.05 1.17
0.27 0.27 0.23 0.20 0.18 0.20 0.23 0.23 0.19 0.17 0.17 0.11 0.19 0.19 0.18 0.23 0.30 0.34 0.38 0.44 0.50 0.56 0.61 0.69 0.74 0.84 0.92 0.98 1.12 1.16 1.11 1.07 1.11 1.08 1.05 1.07 1.03 1.05 0.98 0.97 0.93 0.91 1.07 1.15
0.18 0.19 0.27 0.29 0.19 0.19 0.18 0.23 0.19 0.13 0.13 0.13 0.20 0.17 0.17 0.27 0.36 0.40 0.41 0.43 0.60 0.64 0.69 0.78 0.85 0.90 0.97 1.06 1.09 1.02 0.97 0.95 1.02 1.02 1.00 1.05 1.03 0.99 0.98 0.94 0.90 1.08 1.13 1.08
0.25 0.23 0.36 0.35 0.33 0.22 0.18 0.19 0.23 0.20 0.23 0.17 0.19 0.21 0.27 0.33 0.35 0.39 0.40 0.47 0.62 0.66 0.76 0.82 0.92 0.96 1.04 1.02 0.94 0.92 0.93 0.95 0.97 0.95 1.00 0.98 0.90 0.89 0.88 0.98 1.11 1.10 1.11 1.05
0.31 0.22 0.26 0.32 0.33 0.29 0.23 0.22 0.22 0.21 0.17 0.15 0.16 0.18 0.19 0.30 0.38 0.40 0.42 0.50 0.64 0.72 0.77 0.80 0.88 0.93 0.95 0.93 0.93 0.97 0.97 0.92 0.92 0.93 0.91 0.88 0.90 0.97 1.03 1.12 1.14 1.13 1.04 1.15
0.33 0.26 0.19 0.28 0.27 0.23 0.21 0.21 0.23 0.25 0.22 0.17 0.15 0.17 0.36 0.34 0.44 0.40 0.44 0.57 0.62 0.68 0.73 0.77 0.82 0.88 0.91 0.94 0.97 0.96 0.90 0.90 0.87 0.87 0.86 0.84 0.89 1.02 1.06 1.14 1.18 1.08 1.07 1.12
0.34 0.28 0.18 0.23 0.29 0.31 0.31 0.30 0.25 0.22 0.19 0.21 0.23 0.23 0.44 0.53 0.46 0.46 0.48 0.57 0.65 0.71 0.75 0.78 0.81 0.86 0.90 0.92 0.94 0.88 0.89 0.85 0.81 0.84 0.85 0.94 1.02 1.09 1.27 1.26 1.13 1.02 1.03 1.07
0.35 0.27 0.21 0.20 0.21 0.29 0.31 0.31 0.27 0.28 0.29 0.21 0.20 0.25 0.42 0.46 0.53 0.57 0.56 0.63 0.73 0.80 0.83 0.81 0.83 0.84 0.88 0.91 0.90 0.86 0.82 0.78 0.78 0.91 0.91 1.00 1.07 1.24 1.28 1.23 1.05 0.93 1.03 1.08
0.42 0.32 0.25 0.21 0.29 0.39 0.34 0.37 0.37 0.33 0.23 0.23 0.23 0.29 0.33 0.41 0.52 0.63 0.66 0.71 0.78 0.88 0.82 0.80 0.80 0.83 0.88 0.89 0.86 0.79 0.75 0.74 0.85 0.90 1.01 1.00 1.12 1.24 1.23 1.12 1.03 1.01 1.08 1.09
0.43 0.31 0.34 0.34 0.37 0.41 0.37 0.37 0.37 0.32 0.31 0.21 0.26 0.29 0.36 0.53 0.57 0.65 0.73 0.78 0.82 0.79 0.76 0.77 0.78 0.81 0.84 0.84 0.79 0.72 0.73 0.75 0.88 1.00 1.02 1.07 1.14 1.13 1.10 1.04 0.97 1.06 1.13 1.09
0.48 0.34 0.37 0.30 0.35 0.39 0.32 0.37 0.37 0.34 0.31 0.28 0.28 0.34 0.55 0.64 0.71 0.74 0.76 0.75 0.72 0.72 0.76 0.78 0.79 0.81 0.81 0.77 0.70 0.67 0.71 0.77 0.89 1.03 1.02 1.08 1.09 1.04 1.02 1.01 0.96 0.99 1.09 1.09
0.33 0.34 0.34 0.28 0.35 0.34 0.27 0.29 0.33 0.32 0.33 0.31 0.27 0.36 0.66 0.71 0.79 0.76 0.76 0.76 0.75 0.76 0.77 0.77 0.79 0.81 0.82 0.71 0.67 0.61 0.72 0.82 0.88 0.99 1.07 1.13 1.06 1.05 1.04 1.07 1.02 1.01 1.08 1.09
0.27 0.32 0.35 0.29 0.36 0.21 0.30 0.51 0.35 0.34 0.39 0.47 0.43 0.50 0.64 0.67 0.76 0.87 0.86 0.80 0.81 0.80 0.79 0.78 0.82 0.80 0.80 0.73 0.63 0.66 0.75 0.75 0.88 1.00 1.08 1.09 1.07 1.06 1.08 1.11 1.11 1.13 1.11 1.10
0.37 0.35 0.32 0.29 0.31 0.34 0.44 0.58 0.54 0.53 0.55 0.70 0.61 0.62 0.90 0.86 0.74 0.78 0.88 0.93 0.91 0.87 0.83 0.81 0.86 0.81 0.75 0.70 0.63 0.65 0.69 0.70 0.86 1.01 1.03 1.05 1.08 1.08 1.15 1.14 1.19 1.28 1.31 1.29
0.42 0.40 0.36 0.36 0.30 0.29 0.50 0.64 0.73 0.73 0.51 0.83 0.74 0.64 0.67 0.79 0.56 0.64 0.80 0.88 0.95 0.93 0.91 0.87 0.87 0.81 0.69 0.68 0.61 0.61 0.63 0.70 0.82 0.98 1.03 1.05 1.05 1.05 1.06 1.13 1.22 1.31 1.35 1.37
0.40 0.40 0.34 0.35 0.32 0.41 0.58 0.67 0.74 0.47 0.58 0.87 0.78 0.76 0.76 0.71 0.69 0.70 0.76 0.82 0.94 0.98 0.91 0.93 0.90 0.79 0.69 0.65 0.58 0.54 0.60 0.67 0.83 0.96 0.99 1.01 0.99 0.96 1.02 1.11 1.19 1.32 1.36 1.35
0.37 0.36 0.37 0.37 0.32 0.32 0.67 0.68 0.57 0.73 0.86 0.84 0.83 0.82 0.78 0.80 0.77 0.73 0.68 0.70 0.87 0.97 0.92 0.93 0.90 0.84 0.79 0.62 0.54 0.52 0.55 0.70 0.83 0.90 0.91 0.96 0.97 0.98 1.00 0.99 1.18 1.41 1.36 1.28
0.36 0.44 0.41 0.44 0.43 0.61 0.71 0.71 0.81 0.82 0.81 0.80 0.83 0.86 0.83 0.74 0.71 0.72 0.74 0.73 0.86 0.96 0.94 0.98 0.93 0.86 0.79 0.71 0.54 0.49 0.57 0.67 0.79 0.85 0.88 0.93 0.95 0.92 0.90 0.83 1.14 1.21 1.20 1.21
0.49 0.57 0.48 0.49 0.56 0.60 0.69 0.76 0.81 0.81 0.77 0.79 0.82 0.82 0.82 0.75 0.75 0.70 0.75 0.78 0.88 0.98 1.01 1.03 0.95 0.87 0.82 0.78 0.59 0.51 0.61 0.66 0.75 0.81 0.83 0.89 0.89 0.86 0.87 0.76 0.94 1.03 1.08 1.18
0.48 0.53 0.50 0.51 0.58 0.63 0.68 0.76 0.78 0.78 0.79 0.78 0.78 0.81 0.79 0.78 0.75 0.69 0.71 0.86 0.88 0.98 1.08 1.03 0.99 0.91 0.88 0.86 0.68 0.52 0.63 0.61 0.70 0.79 0.82 0.84 0.86 0.81 0.85 0.70 0.79 0.87 1.01 1.11
0.49 0.48 0.46 0.44 0.59 0.59 0.63 0.71 0.77 0.74 0.74 0.75 0.74 0.74 0.77 0.77 0.74 0.69 0.72 0.90 0.94 0.97 1.05 1.04 1.05 0.99 0.96 0.92 0.73 0.51 0.62 0.59 0.67 0.71 0.75 0.79 0.83 0.82 0.85 0.77 0.72 0.83 0.83 0.92

GFSCGP_prec_pwat_024.txt.gz
Precipitable_Water
0.24 0.20 0.17 0.19 0.26 0.28 0.31 0.30 0.25 0.28 0.35 0.33 0.28 0.27 0.31 0.36 0.37 0.40 0.44 0.45 0.47 0.50 0.53 0.55 0.60 0.68 0.70 0.74 0.73 0.77 0.84 0.94 0.98 1.00 1.05 1.14 1.15 1.30 1.37 1.44 1.51 1.56 1.52 1.43
0.21 0.13 0.17 0.23 0.28 0.28 0.27 0.25 0.24 0.32 0.35 0.36 0.33 0.27 0.31 0.34 0.36 0.40 0.40 0.42 0.44 0.48 0.51 0.56 0.62 0.67 0.68 0.68 0.74 0.78 0.85 0.94 0.99 1.06 1.16 1.25 1.27 1.35 1.37 1.44 1.47 1.50 1.40 1.40
0.19 0.21 0.21 0.19 0.21 0.22 0.24 0.23 0.23 0.25 0.29 0.29 0.31 0.25 0.32 0.30 0.32 0.35 0.39 0.39 0.43 0.44 0.45 0.52 0.58 0.62 0.66 0.69 0.72 0.77 0.86 0.96 1.08 1.15 1.24 1.31 1.41 1.39 1.36 1.39 1.40 1.34 1.33 1.32
0.19 0.21 0.20 0.21 0.20 0.18 0.17 0.25 0.25 0.23 0.22 0.17 0.25 0.15 0.22 0.23 0.23 0.28 0.34 0.36 0.37 0.38 0.44 0.53 0.56 0.59 0.63 0.69 0.87 0.95 1.00 1.07 1.25 1.27 1.23 1.23 1.17 1.19 1.30 1.31 1.26 1.24 1.28 1.26
0.15 0.19 0.19 0.19 0.20 0.25 0.16 0.23 0.22 0.23 0.23 0.23 0.20 0.18 0.12 0.22 0.20 0.23 0.26 0.27 0.33 0.40 0.47 0.52 0.54 0.58 0.70 0.84 0.92 1.04 1.11 1.18 1.32 1.32 1.32 1.27 1.27 1.29 1.29 1.15 1.11 1.13 1.18 1.13
0.21 0.25 0.20 0.20 0.23 0.23 0.22 0.23 0.23 0.25 0.24 0.17 0.17 0.18 0.12 0.15 0.18 0.21 0.24 0.28 0.32 0.41 0.49 0.52 0.59 0.71 0.83 0.95 1.00 1.09 1.15 1.27 1.35 1.29 1.29 1.26 1.20 1.12 1.04 1.03 1.04 1.04 1.04 1.06
0.27 0.28 0.29 0.26 0.22 0.23 0.21 0.19 0.16 0.15 0.16 0.10 0.18 0.17 0.14 0.20 0.22 0.25 0.25 0.29 0.37 0.45 0.53 0.61 0.67 0.76 0.88 0.92 0.99 1.10 1.20 1.22 1.22 1.19 1.17 1.15 1.08 1.05 1.02 1.00 0.97 0.96 0.95 1.07
0.20 0.17 0.24 0.34 0.31 0.22 0.20 0.19 0.17 0.11 0.12 0.12 0.18 0.13 0.15 0.20 0.26 0.27 0.28 0.31 0.40 0.52 0.62 0.72 0.79 0.87 0.93 0.97 1.07 1.15 1.15 1.08 1.10 1.10 1.08 1.07 1.04 1.03 1.00 0.99 0.99 0.97 1.06 1.13
0.22 0.20 0.32 0.31 0.34 0.30 0.23 0.17 0.20 0.18 0.21 0.16 0.16 0.16 0.19 0.18 0.18 0.25 0.29 0.34 0.43 0.57 0.68 0.76 0.87 0.94 1.00 1.05 1.12 1.14 1.02 0.99 1.03 1.03 1.04 0.99 0.99 0.98 0.96 1.00 1.01 1.08 1.13 1.10
0.29 0.19 0.23 0.27 0.31 0.31 0.27 0.29 0.18 0.19 0.15 0.13 0.15 0.16 0.12 0.18 0.29 0.33 0.33 0.37 0.52 0.65 0.74 0.81 0.88 0.95 1.06 1.13 1.09 0.98 1.00 0.97 1.01 1.02 0.95 0.92 0.93 0.94 0.93 0.95 1.02 1.12 1.09 1.02
0.32 0.27 0.20 0.25 0.21 0.21 0.26 0.25 0.23 0.22 0.21 0.15 0.13 0.14 0.18 0.26 0.34 0.39 0.37 0.45 0.57 0.69 0.76 0.83 0.88 1.00 1.02 0.97 0.92 0.96 0.97 0.94 0.93 0.89 0.86 0.84 0.85 0.82 0.97 1.01 1.15 1.14 1.04 1.09
0.35 0.29 0.19 0.18 0.24 0.26 0.30 0.25 0.28 0.20 0.17 0.19 0.18 0.14 0.21 0.35 0.38 0.42 0.45 0.55 0.67 0.75 0.77 0.85 0.90 0.91 0.89 0.88 0.93 0.92 0.92 0.87 0.83 0.83 0.79 0.78 0.85 0.96 1.07 1.24 1.20 1.04 1.03 1.10
0.38 0.29 0.18 0.15 0.19 0.31 0.29 0.30 0.33 0.32 0.27 0.18 0.16 0.14 0.35 0.40 0.41 0.51 0.54 0.62 0.68 0.69 0.79 0.85 0.87 0.87 0.87 0.89 0.90 0.88 0.88 0.80 0.80 0.78 0.82 0.90 0.96 1.08 1.21 1.21 1.09 0.95 1.04 1.05
0.47 0.33 0.26 0.17 0.21 0.30 0.29 0.33 0.35 0.33 0.22 0.19 0.18 0.20 0.32 0.37 0.45 0.58 0.59 0.66 0.69 0.78 0.87 0.89 0.89 0.86 0.89 0.92 0.90 0.88 0.80 0.76 0.77 0.83 0.87 0.93 1.04 1.18 1.19 1.13 0.98 0.91 1.07 1.05
0.43 0.30 0.33 0.33 0.33 0.35 0.35 0.33 0.34 0.31 0.29 0.23 0.23 0.26 0.36 0.38 0.41 0.51 0.66 0.70 0.73 0.78 0.90 0.84 0.82 0.82 0.88 0.89 0.87 0.80 0.72 0.72 0.83 0.87 0.95 0.99 1.09 1.13 1.06 1.04 0.95 1.00 1.08 1.10
0.41 0.28 0.34 0.29 0.33 0.31 0.30 0.33 0.33 0.32 0.32 0.29 0.30 0.30 0.42 0.51 0.63 0.65 0.73 0.72 0.73 0.81 0.85 0.80 0.82 0.83 0.83 0.82 0.72 0.68 0.68 0.74 0.88 0.96 0.97 1.02 1.07 1.04 1.03 1.00 0.95 1.05 1.07 1.06
0.30 0.30 0.28 0.25 0.36 0.31 0.26 0.31 0.30 0.33 0.36 0.34 0.25 0.34 0.45 0.66 0.82 0.86 0.79 0.78 0.80 0.84 0.78 0.80 0.78 0.80 0.81 0.71 0.66 0.62 0.69 0.76 0.92 0.99 1.07 1.07 1.01 1.01 0.98 0.94 0.92 1.02 1.05 1.08
0.29 0.26 0.28 0.27 0.33 0.21 0.37 0.49 0.47 0.37 0.35 0.37 0.41 0.44 0.47 0.57 0.85 0.95 0.96 0.89 0.83 0.76 0.81 0.81 0.81 0.82 0.83 0.72 0.67 0.65 0.72 0.78 0.91 1.00 1.06 1.06 1.02 1.03 1.02 1.04 0.98 1.06 1.08 1.06
0.40 0.32 0.28 0.26 0.26 0.33 0.36 0.46 0.44 0.38 0.38 0.56 0.45 0.46 0.57 0.67 0.75 0.99 1.05 1.04 0.88 0.78 0.82 0.80 0.83 0.79 0.78 0.74 0.66 0.62 0.69 0.80 0.88 0.96 1.00 1.07 1.04 1.01 1.05 1.08 1.14 1.20 1.21 1.12
0.44 0.40 0.32 0.31 0.26 0.24 0.43 0.53 0.58 0.56 0.35 0.63 0.66 0.62 0.65 0.66 0.58 0.72 1.01 1.04 0.93 0.89 0.89 0.88 0.89 0.81 0.79 0.74 0.68 0.60 0.65 0.75 0.83 0.95 1.00 1.05 1.00 0.98 1.01 1.12 1.22 1.31 1.33 1.31
0.38 0.37 0.30 0.31 0.30 0.34 0.54 0.60 0.62 0.36 0.47 0.78 0.76 0.77 0.76 0.67 0.79 0.97 1.04 1.00 0.97 0.96 0.93 0.94 0.93 0.83 0.76 0.73 0.65 0.53 0.61 0.67 0.83 0.96 1.01 1.00 0.96 0.91 1.00 1.11 1.25 1.30 1.31 1.34
0.36 0.34 0.34 0.37 0.32 0.29 0.61 0.63 0.48 0.63 0.85 0.85 0.86 0.85 0.83 0.83 0.88 0.97 0.99 0.98 1.00 0.97 0.97 0.95 0.92 0.91 0.85 0.72 0.60 0.48 0.54 0.71 0.80 0.89 0.91 0.93 0.93 0.96 1.04 1.16 1.23 1.33 1.30 1.28
0.36 0.43 0.38 0.41 0.41 0.58 0.68 0.69 0.76 0.80 0.80 0.88 0.88 0.96 0.91 0.98 1.00 0.97 0.93 0.94 1.00 1.04 1.01 0.98 0.93 0.94 0.87 0.74 0.60 0.44 0.52 0.68 0.76 0.86 0.86 0.90 0.92 0.96 1.00 1.00 1.12 1.25 1.23 1.19
0.48 0.56 0.47 0.47 0.56 0.60 0.69 0.78 0.83 0.87 0.81 0.92 0.91 0.94 0.93 0.90 0.94 0.92 0.86 0.86 0.96 1.05 1.06 0.99 0.95 0.92 0.84 0.82 0.63 0.46 0.53 0.66 0.72 0.81 0.82 0.87 0.88 0.86 0.90 0.89 1.05 1.12 1.13 1.18
0.50 0.54 0.50 0.50 0.56 0.63 0.69 0.74 0.82 0.86 0.86 0.89 0.88 0.90 0.87 0.85 0.86 0.88 0.84 0.80 0.91 1.01 1.07 1.04 0.95 0.96 0.91 0.86 0.74 0.50 0.54 0.64 0.69 0.76 0.77 0.81 0.87 0.85 0.76 0.76 0.91 1.03 1.15 1.23
0.51 0.48 0.46 0.45 0.59 0.58 0.61 0.73 0.81 0.80 0.84 0.83 0.83 0.84 0.84 0.82 0.80 0.85 0.80 0.86 0.91 0.96 1.06 1.08 1.02 0.99 0.98 0.92 0.76 0.55 0.56 0.61 0.67 0.74 0.75 0.78 0.81 0.83 0.73 0.67 0.76 0.93 1.06 1.27

GFSCGP_prec_pwat_030.txt.gz
Precipitable_Water
0.21 0.19 0.16 0.21 0.26 0.26 0.26 0.26 0.25 0.29 0.36 0.36 0.38 0.36 0.36 0.37 0.33 0.35 0.40 0.38 0.32 0.32 0.42 0.49 0.53 0.54 0.53 0.55 0.58 0.62 0.63 0.73 0.86 0.90 0.91 0.97 0.96 1.08 1.17 1.25 1.35 1.40 1.46 1.46
0.19 0.15 0.21 0.26 0.28 0.29 0.27 0.24 0.24 0.30 0.34 0.32 0.30 0.28 0.29 0.30 0.29 0.29 0.30 0.29 0.29 0.30 0.33 0.39 0.45 0.47 0.46 0.51 0.55 0.58 0.64 0.74 0.85 0.92 0.95 1.00 1.02 1.10 1.18 1.30 1.39 1.47 1.50 1.53
0.20 0.19 0.23 0.24 0.25 0.24 0.26 0.25 0.24 0.24 0.31 0.32 0.29 0.23 0.25 0.27 0.27 0.27 0.28 0.29 0.31 0.31 0.30 0.31 0.33 0.40 0.46 0.47 0.51 0.57 0.61 0.71 0.84 0.96 0.99 1.03 1.09 1.14 1.16 1.24 1.35 1.46 1.53 1.54
0.24 0.24 0.22 0.21 0.22 0.25 0.21 0.28 0.28 0.26 0.25 0.18 0.28 0.15 0.20 0.22 0.21 0.24 0.26 0.27 0.29 0.32 0.34 0.33 0.35 0.42 0.45 0.47 0.52 0.57 0.65 0.75 0.86 0.96 0.95 0.94 0.92 0.94 1.08 1.23 1.39 1.45 1.54 1.55
0.21 0.20 0.19 0.20 0.19 0.24 0.22 0.28 0.27 0.25 0.24 0.22 0.20 0.18 0.13 0.18 0.15 0.18 0.21 0.22 0.24 0.26 0.26 0.26 0.30 0.34 0.37 0.42 0.48 0.62 0.75 0.85 0.91 0.97 1.00 1.00 1.00 1.11 1.24 1.32 1.35 1.42 1.45 1.43
0.31 0.30 0.26 0.21 0.22 0.21 0.22 0.22 0.25 0.27 0.23 0.15 0.17 0.18 0.09 0.12 0.13 0.14 0.17 0.19 0.20 0.23 0.25 0.28 0.33 0.41 0.43 0.55 0.65 0.76 0.79 0.87 0.98 1.03 1.06 1.08 1.10 1.15 1.16 1.21 1.24 1.23 1.22 1.18
0.29 0.28 0.25 0.27 0.22 0.23 0.21 0.20 0.14 0.16 0.16 0.11 0.17 0.15 0.09 0.16 0.19 0.20 0.21 0.23 0.25 0.27 0.28 0.29 0.33 0.44 0.56 0.67 0.81 0.87 0.91 0.94 1.06 1.11 1.15 1.18 1.16 1.16 1.16 1.17 1.18 1.13 1.02 1.01
0.27 0.20 0.25 0.28 0.25 0.20 0.21 0.18 0.14 0.10 0.12 0.11 0.16 0.11 0.12 0.18 0.17 0.19 0.22 0.23 0.25 0.25 0.27 0.31 0.43 0.59 0.72 0.85 0.93 0.99 1.02 1.04 1.12 1.17 1.18 1.22 1.17 1.15 1.16 1.16 1.06 0.98 0.97 0.99
0.26 0.27 0.37 0.34 0.34 0.30 0.25 0.19 0.20 0.17 0.18 0.14 0.14 0.12 0.15 0.18 0.19 0.21 0.21 0.23 0.29 0.34 0.33 0.38 0.55 0.69 0.86 0.96 1.02 1.05 1.05 1.08 1.16 1.18 1.18 1.11 1.13 1.14 1.09 1.01 1.01 1.02 1.02 1.01
0.34 0.23 0.32 0.38 0.40 0.35 0.30 0.28 0.17 0.17 0.11 0.12 0.13 0.11 0.10 0.13 0.17 0.20 0.23 0.27 0.34 0.40 0.45 0.54 0.67 0.83 0.97 1.04 1.09 1.12 1.14 1.12 1.15 1.08 1.05 1.06 1.05 1.02 0.97 0.98 0.97 0.96 1.01 1.10
0.35 0.27 0.21 0.27 0.24 0.23 0.25 0.26 0.25 0.20 0.16 0.14 0.12 0.12 0.20 0.16 0.16 0.22 0.27 0.33 0.47 0.46 0.55 0.64 0.77 0.90 0.98 1.06 1.11 1.10 1.10 1.02 0.97 1.00 1.00 0.94 0.90 0.91 0.94 0.93 0.94 0.99 1.09 1.11
0.36 0.29 0.20 0.20 0.26 0.28 0.27 0.25 0.28 0.20 0.14 0.16 0.16 0.15 0.25 0.24 0.22 0.24 0.26 0.43 0.61 0.61 0.67 0.75 0.85 0.92 0.96 1.02 1.08 1.04 0.95 0.93 0.97 0.98 0.91 0.83 0.84 0.86 0.84 0.88 0.95 1.13 1.12 1.01
0.37 0.27 0.18 0.18 0.27 0.29 0.23 0.25 0.29 0.28 0.26 0.17 0.15 0.14 0.25 0.26 0.25 0.23 0.34 0.46 0.67 0.69 0.79 0.82 0.87 0.89 0.93 1.03 1.01 0.93 0.94 0.95 0.97 0.92 0.79 0.76 0.74 0.75 0.84 0.95 1.13 1.15 1.02 0.99
0.40 0.31 0.23 0.17 0.21 0.26 0.22 0.23 0.27 0.29 0.21 0.19 0.19 0.20 0.19 0.24 0.27 0.29 0.40 0.60 0.66 0.75 0.81 0.85 0.84 0.90 0.96 0.97 0.93 0.93 0.96 0.98 0.92 0.76 0.67 0.67 0.75 0.91 1.02 1.12 1.08 1.04 0.96 1.01
0.36 0.23 0.27 0.28 0.29 0.31 0.27 0.23 0.24 0.23 0.25 0.23 0.24 0.25 0.22 0.29 0.32 0.33 0.45 0.59 0.69 0.75 0.82 0.90 0.90 0.90 0.91 0.90 0.93 0.95 0.96 0.91 0.76 0.65 0.70 0.80 0.94 1.04 1.12 1.09 1.03 0.95 0.96 1.03
0.40 0.24 0.26 0.22 0.26 0.27 0.23 0.24 0.23 0.23 0.24 0.25 0.30 0.28 0.31 0.34 0.38 0.37 0.46 0.54 0.74 0.74 0.88 0.96 1.00 0.90 0.86 0.88 0.89 0.92 0.86 0.72 0.67 0.73 0.80 0.91 1.00 1.06 1.05 1.03 0.94 0.94 1.01 1.08
0.35 0.28 0.24 0.16 0.22 0.24 0.17 0.22 0.23 0.19 0.23 0.24 0.23 0.27 0.29 0.31 0.37 0.42 0.45 0.62 0.77 0.79 0.94 0.96 0.99 0.90 0.87 0.88 0.89 0.81 0.71 0.66 0.76 0.83 0.93 0.98 1.03 1.04 1.02 1.01 0.94 0.94 1.02 1.03
0.30 0.29 0.26 0.18 0.22 0.14 0.21 0.37 0.37 0.26 0.24 0.26 0.28 0.26 0.29 0.40 0.44 0.52 0.55 0.70 0.87 0.88 1.00 1.02 0.99 0.95 0.92 0.89 0.83 0.72 0.62 0.74 0.82 0.92 0.98 1.02 1.07 1.03 1.00 0.99 0.95 1.01 1.03 1.01
0.37 0.29 0.22 0.18 0.21 0.23 0.26 0.37 0.39 0.32 0.24 0.31 0.30 0.29 0.36 0.45 0.56 0.52 0.70 0.87 0.97 1.00 1.09 1.09 1.02 0.98 0.93 0.79 0.66 0.61 0.67 0.79 0.89 0.96 0.97 1.02 1.04 0.98 0.95 0.93 0.97 1.03 1.02 1.00
0.45 0.40 0.29 0.26 0.22 0.20 0.34 0.47 0.53 0.48 0.23 0.47 0.45 0.43 0.50 0.58 0.47 0.49 0.79 0.97 1.03 1.10 1.15 1.04 1.01 0.95 0.83 0.66 0.63 0.63 0.70 0.82 0.89 0.94 0.98 1.02 1.01 0.95 0.97 1.06 1.06 1.11 1.11 1.04
0.35 0.34 0.28 0.29 0.26 0.30 0.45 0.49 0.56 0.29 0.30 0.52 0.51 0.51 0.60 0.54 0.58 0.66 0.89 0.96 1.05 1.12 1.11 1.05 0.98 0.84 0.66 0.64 0.65 0.62 0.74 0.79 0.90 0.98 1.00 0.99 0.95 0.93 1.04 1.15 1.24 1.26 1.27 1.26
0.34 0.31 0.30 0.33 0.28 0.25 0.55 0.52 0.40 0.51 0.58 0.57 0.57 0.65 0.68 0.72 0.70 0.74 0.80 0.88 0.98 1.05 1.03 1.07 0.94 0.83 0.72 0.69 0.62 0.64 0.70 0.83 0.94 0.97 0.98 0.91 0.93 1.04 1.15 1.19 1.26 1.29 1.28 1.24
0.33 0.40 0.36 0.38 0.38 0.54 0.58 0.56 0.63 0.63 0.57 0.63 0.68 0.76 0.76 0.72 0.71 0.78 0.81 0.88 0.93 1.01 1.06 1.09 1.00 0.84 0.77 0.77 0.67 0.61 0.72 0.83 0.91 0.93 0.96 0.94 0.93 0.98 1.11 1.16 1.19 1.23 1.28 1.24
0.47 0.53 0.43 0.44 0.50 0.54 0.59 0.65 0.73 0.71 0.64 0.74 0.75 0.79 0.79 0.77 0.77 0.81 0.87 0.91 0.98 1.06 1.07 1.08 1.06 0.93 0.78 0.78 0.73 0.65 0.72 0.78 0.85 0.85 0.91 0.94 0.84 0.91 1.04 1.12 1.17 1.24 1.25 1.23
0.49 0.51 0.47 0.46 0.54 0.57 0.60 0.67 0.71 0.68 0.78 0.84 0.82 0.84 0.88 0.85 0.85 0.89 0.94 0.97 1.03 1.09 1.09 1.10 1.04 0.94 0.86 0.83 0.73 0.71 0.69 0.75 0.76 0.80 0.86 0.86 0.87 0.86 0.91 1.00 1.11 1.19 1.27 1.29
0.52 0.49 0.45 0.42 0.57 0.57 0.58 0.68 0.72 0.71 0.79 0.83 0.88 0.86 0.91 0.94 0.91 0.95 0.97 1.05 1.04 1.05 1.12 1.07 1.03 0.99 0.93 0.91 0.78 0.69 0.66 0.71 0.75 0.75 0.80 0.82 0.81 0.83 0.85 0.85 1.03 1.20 1.25 1.25

GFSCGP_prec_pwat_033.txt.gz
Precipitable_Water
0.23 0.16 0.11 0.15 0.22 0.23 0.24 0.24 0.23 0.27 0.32 0.30 0.28 0.29 0.38 0.49 0.50 0.47 0.46 0.47 0.47 0.47 0.51 0.48 0.53 0.51 0.50 0.53 0.61 0.63 0.63 0.70 0.73 0.83 0.86 0.90 0.91 1.03 1.11 1.17 1.23 1.29 1.35 1.40
0.22 0.14 0.18 0.22 0.21 0.22 0.24 0.22 0.23 0.29 0.32 0.31 0.30 0.27 0.32 0.36 0.38 0.44 0.46 0.46 0.45 0.44 0.35 0.42 0.47 0.41 0.38 0.42 0.53 0.57 0.59 0.62 0.71 0.80 0.88 0.95 0.99 1.06 1.13 1.19 1.25 1.33 1.38 1.43
0.21 0.19 0.22 0.21 0.21 0.20 0.23 0.23 0.23 0.24 0.32 0.33 0.29 0.24 0.26 0.30 0.33 0.33 0.38 0.43 0.40 0.30 0.29 0.32 0.32 0.35 0.38 0.40 0.47 0.55 0.56 0.59 0.70 0.80 0.90 0.97 1.05 1.06 1.07 1.13 1.20 1.33 1.41 1.48
0.21 0.26 0.24 0.22 0.20 0.23 0.21 0.28 0.28 0.26 0.26 0.22 0.30 0.15 0.22 0.25 0.25 0.27 0.29 0.29 0.28 0.28 0.30 0.31 0.33 0.36 0.37 0.38 0.47 0.52 0.51 0.57 0.70 0.86 0.85 0.88 0.87 0.86 1.00 1.09 1.23 1.37 1.48 1.49
0.21 0.24 0.24 0.22 0.23 0.23 0.21 0.30 0.27 0.27 0.25 0.25 0.24 0.22 0.15 0.22 0.18 0.21 0.24 0.26 0.26 0.27 0.29 0.29 0.31 0.33 0.34 0.36 0.40 0.48 0.56 0.64 0.74 0.84 0.91 0.94 0.94 0.99 1.09 1.19 1.28 1.38 1.46 1.51
0.31 0.36 0.30 0.26 0.25 0.25 0.23 0.22 0.24 0.28 0.25 0.17 0.19 0.22 0.12 0.14 0.16 0.18 0.20 0.21 0.23 0.24 0.25 0.26 0.29 0.34 0.33 0.43 0.55 0.59 0.62 0.67 0.79 0.88 0.95 0.97 0.98 1.02 1.11 1.22 1.26 1.35 1.38 1.38
0.31 0.30 0.32 0.35 0.26 0.26 0.23 0.22 0.14 0.15 0.17 0.12 0.19 0.20 0.14 0.17 0.20 0.20 0.21 0.22 0.26 0.28 0.28 0.29 0.29 0.31 0.40 0.49 0.58 0.62 0.69 0.74 0.88 0.94 1.01 1.09 1.12 1.17 1.22 1.26 1.24 1.21 1.20 1.18
0.29 0.24 0.30 0.33 0.27 0.22 0.22 0.20 0.16 0.10 0.11 0.10 0.19 0.14 0.16 0.19 0.21 0.25 0.24 0.25 0.26 0.27 0.32 0.33 0.30 0.38 0.50 0.61 0.72 0.81 0.88 0.89 0.98 1.06 1.12 1.19 1.23 1.25 1.28 1.26 1.26 1.17 1.05 1.03
0.28 0.25 0.37 0.38 0.35 0.28 0.24 0.21 0.22 0.18 0.17 0.12 0.14 0.14 0.19 0.20 0.19 0.22 0.25 0.27 0.27 0.33 0.40 0.37 0.43 0.50 0.63 0.75 0.89 0.97 0.99 1.05 1.12 1.15 1.18 1.22 1.24 1.21 1.19 1.23 1.15 1.06 1.02 1.00
0.34 0.25 0.33 0.40 0.38 0.36 0.32 0.29 0.19 0.19 0.12 0.09 0.11 0.12 0.14 0.18 0.13 0.22 0.24 0.28 0.33 0.48 0.46 0.51 0.53 0.63 0.82 0.96 1.03 1.09 1.13 1.11 1.16 1.19 1.22 1.15 1.15 1.18 1.12 1.06 1.00 0.97 0.98 0.98
0.35 0.30 0.27 0.30 0.30 0.32 0.33 0.32 0.26 0.22 0.16 0.13 0.12 0.14 0.23 0.22 0.22 0.24 0.27 0.34 0.49 0.60 0.59 0.63 0.69 0.83 0.97 1.04 1.08 1.12 1.13 1.15 1.17 1.14 1.10 1.08 1.07 1.01 0.97 0.95 0.97 0.95 0.99 1.05
0.34 0.32 0.23 0.22 0.30 0.32 0.32 0.30 0.32 0.21 0.15 0.16 0.16 0.17 0.28 0.27 0.26 0.27 0.28 0.34 0.53 0.75 0.72 0.76 0.84 0.92 0.99 1.00 1.08 1.10 1.15 1.09 1.06 1.05 1.03 1.00 0.95 0.92 0.91 0.91 0.93 0.98 1.05 1.16
0.34 0.27 0.19 0.18 0.27 0.30 0.25 0.27 0.30 0.32 0.27 0.20 0.16 0.17 0.30 0.29 0.26 0.30 0.30 0.34 0.48 0.75 0.81 0.87 0.93 0.96 1.00 1.01 1.06 1.09 1.05 1.01 1.02 1.01 0.96 0.89 0.83 0.84 0.82 0.84 0.92 1.07 1.14 1.06
0.40 0.30 0.24 0.17 0.20 0.27 0.23 0.25 0.27 0.26 0.22 0.21 0.20 0.22 0.26 0.28 0.28 0.30 0.32 0.37 0.49 0.73 0.90 0.96 0.96 0.99 1.02 1.04 1.05 1.00 0.97 1.01 1.00 0.95 0.84 0.71 0.74 0.78 0.86 0.97 1.09 1.11 1.05 1.01
0.39 0.27 0.27 0.26 0.26 0.27 0.25 0.24 0.25 0.22 0.23 0.22 0.23 0.23 0.28 0.33 0.33 0.31 0.33 0.40 0.47 0.66 0.87 0.96 0.96 0.98 1.05 1.06 1.02 0.99 0.98 0.99 0.94 0.76 0.66 0.72 0.84 0.97 1.04 1.08 1.06 1.02 0.96 1.01
0.42 0.29 0.31 0.24 0.24 0.22 0.20 0.22 0.23 0.23 0.23 0.23 0.24 0.22 0.33 0.36 0.35 0.33 0.33 0.38 0.44 0.59 0.83 0.98 1.03 1.05 1.02 1.03 1.00 0.98 0.96 0.90 0.77 0.68 0.75 0.88 0.96 1.07 1.11 1.09 1.02 0.96 0.97 1.07
0.34 0.32 0.28 0.19 0.23 0.22 0.16 0.17 0.20 0.21 0.24 0.24 0.19 0.22 0.27 0.29 0.33 0.31 0.37 0.48 0.47 0.59 0.90 1.04 1.09 1.07 1.03 0.99 1.01 0.97 0.90 0.76 0.70 0.77 0.87 0.96 1.03 1.05 1.04 1.04 0.95 0.94 1.02 1.08
0.31 0.30 0.28 0.21 0.23 0.12 0.17 0.27 0.33 0.32 0.33 0.35 0.29 0.23 0.26 0.28 0.36 0.38 0.47 0.53 0.53 0.75 0.97 1.10 1.14 1.06 1.00 1.02 1.01 0.96 0.79 0.71 0.77 0.86 0.95 1.02 1.06 1.04 1.03 1.01 0.97 1.03 1.04 1.04
0.42 0.33 0.25 0.19 0.18 0.20 0.24 0.37 0.39 0.33 0.29 0.37 0.26 0.23 0.30 0.35 0.38 0.42 0.55 0.59 0.69 0.96 1.09 1.16 1.17 1.02 1.00 0.97 0.93 0.80 0.68 0.77 0.86 0.94 1.00 1.04 1.05 0.98 1.01 0.99 0.98 1.07 1.03 1.03
0.45 0.43 0.31 0.26 0.21 0.19 0.34 0.46 0.51 0.49 0.23 0.39 0.30 0.28 0.29 0.38 0.38 0.41 0.66 0.78 0.98 1.09 1.17 1.16 1.08 1.02 0.95 0.89 0.80 0.66 0.70 0.82 0.90 0.99 1.04 1.04 1.03 0.95 0.96 1.03 1.05 1.09 1.09 1.04
0.35 0.35 0.28 0.28 0.26 0.31 0.45 0.50 0.53 0.28 0.34 0.52 0.50 0.46 0.44 0.43 0.50 0.64 0.83 0.98 1.06 1.16 1.16 1.15 1.03 0.90 0.84 0.75 0.71 0.63 0.78 0.85 0.97 1.05 1.05 0.99 1.00 0.96 1.06 1.12 1.21 1.21 1.18 1.18
0.34 0.31 0.30 0.32 0.27 0.24 0.53 0.51 0.39 0.47 0.53 0.55 0.53 0.54 0.48 0.57 0.67 0.75 0.83 1.02 1.05 1.12 1.13 1.05 0.94 0.80 0.75 0.70 0.66 0.68 0.79 0.96 1.00 1.02 0.98 0.96 1.00 1.06 1.16 1.19 1.27 1.29 1.30 1.28
0.34 0.40 0.35 0.37 0.37 0.53 0.58 0.54 0.60 0.58 0.54 0.55 0.56 0.62 0.61 0.68 0.72 0.77 0.83 0.99 1.05 1.12 1.06 1.03 0.89 0.75 0.69 0.66 0.67 0.73 0.87 0.96 0.98 0.99 0.96 0.90 0.95 1.06 1.15 1.16 1.21 1.26 1.31 1.24
0.47 0.53 0.42 0.43 0.49 0.53 0.58 0.64 0.68 0.70 0.61 0.67 0.69 0.70 0.75 0.75 0.77 0.82 0.93 0.95 1.01 1.13 1.05 0.96 0.93 0.78 0.64 0.64 0.67 0.78 0.87 0.95 0.96 0.94 0.96 0.93 0.90 1.00 1.12 1.15 1.22 1.28 1.27 1.23
0.48 0.52 0.47 0.46 0.52 0.56 0.59 0.65 0.68 0.68 0.71 0.71 0.75 0.75 0.81 0.84 0.83 0.94 0.96 0.98 1.08 1.10 1.11 1.04 1.00 0.88 0.73 0.75 0.67 0.77 0.82 0.90 0.89 0.91 0.96 0.88 0.89 0.94 1.04 1.13 1.18 1.26 1.35 1.31
0.51 0.49 0.43 0.41 0.54 0.55 0.58 0.66 0.68 0.67 0.69 0.73 0.69 0.72 0.88 0.89 0.91 0.99 0.97 1.02 1.04 1.02 1.05 1.08 1.08 0.95 0.89 0.89 0.74 0.73 0.79 0.83 0.84 0.84 0.87 0.88 0.86 0.88 0.94 1.00 1.13 1.28 1.32 1.28